WICT2: Wichita River At Wichita Falls, TX

                                SHEF ID:       WICT2     Wichita Rv at Wichita Falls, TX
STATION TYPE:
Regulating: Stage = 18.50, Flow = 5482

PRECIP STAGE RIV-FLOW WTR-TEMP CONDUCT BAT-LOAD
in ft cfs F umho/cm volt
Ccp-Rev Ccp-Rev Ccp-Rev Ccp-Rev Ccp-Rev Ccp-Rev
(America/Chicago)
03/30 00:00 ---- 2.29 32 67.15 6814 12.11
03/30 01:00 ---- 2.31 33 66.96 6800 12.04
03/30 02:00 ---- 2.32 34 66.70 6790 12.07
03/30 03:00 ---- 2.30 33 66.42 6780 12.06
03/30 04:00 ---- 2.32 34 66.11 6768 12.04
03/30 05:00 ---- 2.31 33 65.84 6752 12.02
03/30 06:00 ---- 2.33 35 65.59 6738 12.02
03/30 07:00 ---- 2.32 34 65.34 6699 12.00
03/30 08:00 ---- 2.32 34 65.08 6615 11.99
03/30 09:00 ---- 2.32 34 64.94 6524 12.02
03/30 10:00 ---- 2.32 34 65.03 6473 12.50
03/30 11:00 ---- 2.31 33 65.50 6450 12.99
03/30 12:00 ---- 2.31 33 66.33 6423 12.73
03/30 13:00 ---- 2.30 33 67.44 6376 12.60
03/30 14:00 ---- 2.29 32 68.59 6397 12.53
03/30 15:00 ---- 2.31 33 69.73 6467 12.48
03/30 16:00 ---- 2.31 33 70.70 6468 12.42
03/30 17:00 ---- 2.32 34 71.44 6468 12.34
03/30 18:00 ---- 2.31 33 71.91 6377 12.27
03/30 19:00 ---- 2.30 33 72.10 6472 12.17
03/30 20:00 ---- 2.31 33 72.03 6392 12.11
03/30 21:00 ---- 2.31 33 71.85 6363 12.12
03/30 22:00 ---- 2.33 35 71.65 6325 12.11
03/30 23:00 ---- 2.32 34 71.42 6372 12.04
Data processed at Tue 31Mar2026 04:58 GMT

NOTICE: If you are parsing this page

Please convert to using our Data API. Starting early 2026 we will be migrating to: https://water.usace.army.mil with modern pages rendered in JavaScript. When this migration completes you will no longer be able to scrape this page! CWMSDataAPI (CDA)

Timeseries IDs (TSIDs)

TSIDs used from left to right in the data table
WFAL.Precip-Inc.Total.1Hour.1Hour.Ccp-Rev
WFAL.Stage.Inst.1Hour.0.Ccp-Rev
WFAL.Flow.Inst.1Hour.0.Ccp-Rev
WFAL.Temp-Water.Inst.1Hour.0.Ccp-Rev
WFAL.Cond-Water.Inst.1Hour.0.Ccp-Rev
WFAL.Volt-Battery Load.Inst.1Hour.0.Ccp-Rev

                            

All information presented herein is the property of the government of the United States of America and may be revised or deleted at any time without prior notice. Dissemination of this information without the expressed written consent of the Public Affairs Office, Tulsa District U.S. Army Corps of Engineers is strictly prohibited. These data are gathered electronically and, as presented, have NOT undergone any form of quality control. These data are NOT guaranteed to be valid or correct.